YB3RDW-13 Weather Reports


time (UTC)temp
C
wind
direction
speed
KPH
gust
KPH
rain 1hr
cm
rain 24hr
cm
rain mn
cm
humidity
%
barometer
mb
20260505192658 26 142 1.6 3.2 0.00 0.00 0.00 93 1012.0
20260505192157 26 121 4.8 4.8 0.00 0.00 0.00 93 1012.0
20260505191657 26 139 3.2 3.2 0.00 0.00 0.00 93 1012.0
20260505191158 26 121 4.8 4.8 0.00 0.00 0.00 92 1012.0
20260505190659 26 133 4.8 4.8 0.00 0.00 0.00 92 1012.0
20260505190157 26 141 3.2 3.2 0.00 0.00 0.00 92 1012.0
20260505185658 26 100 3.2 4.8 0.00 0.00 0.00 92 1012.0
20260505185157 27 114 3.2 3.2 0.00 0.00 0.00 91 1012.0
20260505184657 27 125 4.8 4.8 0.00 0.00 0.00 91 1012.0
20260505184157 27 101 3.2 4.8 0.00 0.00 0.00 91 1012.0
20260505183658 27 117 3.2 3.2 0.00 0.00 0.00 91 1012.0
20260505183157 27 118 4.8 4.8 0.00 0.00 0.00 90 1012.0
20260505182659 27 141 0.0 0.0 0.00 0.00 0.00 91 1012.0
20260505182158 27 164 1.6 3.2 0.00 0.00 0.00 90 1012.0
20260505181659 27 163 0.0 0.0 0.00 0.00 0.00 90 1012.0
20260505181157 27 178 1.6 1.6 0.00 0.00 0.00 90 1012.0
20260505180657 27 198 3.2 3.2 0.00 0.00 0.00 90 1012.0
20260505180158 27 137 1.6 1.6 0.00 0.00 0.00 90 1012.0
20260505175657 27 144 1.6 3.2 0.00 0.00 0.00 90 1012.0
20260505175158 28 131 3.2 3.2 0.00 0.00 0.00 89 1012.0
20260505174657 28 94 3.2 3.2 0.00 0.00 0.00 86 1012.0
20260505174158 28 188 3.2 3.2 0.00 0.00 0.00 87 1012.0
20260505173658 28 169 0.0 0.0 0.00 0.00 0.00 87 1012.0
20260505173157 28 183 1.6 1.6 0.00 0.00 0.00 87 1012.0
20260505172658 28 188 3.2 3.2 0.00 0.00 0.00 87 1012.0
20260505172157 28 170 0.0 0.0 0.00 0.00 0.00 86 1012.0
20260505171658 28 177 1.6 3.2 0.00 0.00 0.00 87 1012.0
20260505171159 28 190 1.6 1.6 0.00 0.00 0.00 87 1012.0
20260505170657 28 177 1.6 1.6 0.00 0.00 0.00 87 1012.0
20260505170158 28 181 1.6 1.6 0.00 0.00 0.00 87 1012.0
20260505165658 28 187 0.0 1.6 0.00 0.00 0.00 88 1012.0
20260505165158 28 164 0.0 0.0 0.00 0.00 0.00 88 1012.0
20260505164659 28 173 0.0 1.6 0.00 0.00 0.00 88 1012.0
20260505164157 28 176 0.0 1.6 0.00 0.00 0.00 87 1012.0
20260505163657 28 214 4.8 4.8 0.00 0.00 0.00 87 1012.0
20260505163158 28 203 0.0 0.0 0.00 0.00 0.00 87 1012.0
20260505162658 28 185 0.0 1.6 0.00 0.00 0.00 87 1012.0
20260505162158 28 186 3.2 3.2 0.00 0.00 0.00 87 1012.0
20260505161657 28 215 3.2 3.2 0.00 0.00 0.00 87 1012.0
20260505161157 28 247 6.4 8.0 0.00 0.00 0.00 87 1012.0
20260505160658 28 242 4.8 4.8 0.00 0.00 0.00 87 1012.0
20260505160159 28 225 4.8 4.8 0.00 0.00 0.00 87 1013.0
20260505153158 28 222 3.2 3.2 0.00 0.00 0.00 87 1013.0
20260505152657 28 203 0.0 0.0 0.00 0.00 0.00 87 1013.0
20260505152157 28 171 0.0 0.0 0.00 0.00 0.00 86 1013.0
20260505151658 28 168 1.6 3.2 0.00 0.00 0.00 86 1013.0
20260505151201 28 180 0.0 0.0 0.00 0.00 0.00 86 1013.0
20260505150657 28 171 0.0 0.0 0.00 0.00 0.00 86 1013.0
20260505150158 28 179 0.0 0.0 0.00 0.00 0.00 86 1012.0
20260505140159 29 239 4.8 4.8 0.00 0.00 0.00 84 1013.0
20260505130157 29 296 6.4 8.0 0.00 0.00 0.00 83 1012.0
20260505124657 29 171 1.6 3.2 0.00 0.00 0.00 82 1012.0
20260505124200 29 178 1.6 3.2 0.00 0.00 0.00 82 1012.0
20260505123657 29 277 4.8 8.0 0.00 0.00 0.00 81 1012.0
20260505123157 29 232 3.2 3.2 0.00 0.00 0.00 81 1012.0
20260505122657 29 229 4.8 8.0 0.00 0.00 0.00 81 1012.0
20260505122157 29 225 3.2 4.8 0.00 0.00 0.00 81 1012.0
20260505121658 29 285 6.4 8.0 0.00 0.00 0.00 81 1012.0
20260505121157 29 204 4.8 4.8 0.00 0.00 0.00 81 1012.0
20260505120657 29 280 8.0 11.3 0.00 0.00 0.00 81 1012.0
20260505120157 29 325 6.4 8.0 0.00 0.00 0.00 80 1012.0
20260505115658 29 287 4.8 4.8 0.00 0.00 0.00 80 1012.0
20260505115157 29 197 3.2 3.2 0.00 0.00 0.00 80 1012.0
20260505114657 29 225 6.4 8.0 0.00 0.00 0.00 80 1012.0
20260505114157 29 285 4.8 4.8 0.00 0.00 0.00 80 1012.0
20260505113657 30 280 8.0 9.7 0.00 0.00 0.00 79 1012.0
20260505113157 30 298 4.8 8.0 0.00 0.00 0.00 79 1012.0
20260505112657 30 204 3.2 3.2 0.00 0.00 0.00 78 1011.0
20260505112157 30 230 1.6 1.6 0.00 0.00 0.00 78 1011.0
20260505111657 30 147 1.6 3.2 0.00 0.00 0.00 78 1011.0
20260505111157 30 156 3.2 3.2 0.00 0.00 0.00 78 1011.0
20260505110657 30 216 4.8 8.0 0.00 0.00 0.00 77 1011.0
20260505110159 30 165 3.2 3.2 0.00 0.00 0.00 77 1011.0
20260505102157 30 275 6.4 9.7 0.00 0.00 0.00 72 1010.0
20260505101658 30 295 4.8 4.8 0.00 0.00 0.00 72 1010.0
20260505101157 30 260 4.8 4.8 0.00 0.00 0.00 71 1010.0
20260505100658 31 305 9.7 11.3 0.00 0.00 0.00 71 1010.0
20260505100157 31 263 4.8 4.8 0.00 0.00 0.00 69 1010.0
20260505095657 31 182 3.2 3.2 0.00 0.00 0.00 69 1010.0
20260505095157 31 280 8.0 11.3 0.00 0.00 0.00 68 1010.0
20260505094657 31 245 6.4 8.0 0.00 0.00 0.00 69 1010.0
20260505094157 31 322 9.7 9.7 0.00 0.00 0.00 68 1010.0
20260505093657 31 286 12.9 14.5 0.00 0.00 0.00 67 1010.0
20260505093159 31 187 4.8 4.8 0.00 0.00 0.00 66 1010.0
20260505092659 31 262 9.7 14.5 0.00 0.00 0.00 66 1010.0
20260505092158 32 325 12.9 14.5 0.00 0.00 0.00 66 1010.0
20260505091658 32 315 9.7 11.3 0.00 0.00 0.00 64 1010.0
20260505091157 32 219 6.4 8.0 0.00 0.00 0.00 64 1009.0
20260505090658 32 319 9.7 11.3 0.00 0.00 0.00 64 1010.0
20260505090157 32 173 8.0 9.7 0.00 0.00 0.00 63 1010.0
20260505085657 32 300 11.3 14.5 0.00 0.00 0.00 63 1010.0
20260505085158 32 271 11.3 12.9 0.00 0.00 0.00 63 1009.0
20260505084658 32 324 12.9 14.5 0.00 0.00 0.00 62 1009.0
20260505084157 32 269 8.0 11.3 0.00 0.00 0.00 63 1009.0
20260505083657 32 278 14.5 17.7 0.00 0.00 0.00 62 1009.0
20260505083158 32 265 8.0 9.7 0.00 0.00 0.00 62 1009.0
20260505082657 32 312 8.0 11.3 0.00 0.00 0.00 61 1009.0
20260505082157 32 279 6.4 9.7 0.00 0.00 0.00 62 1009.0
20260505081659 32 271 14.5 16.1 0.00 0.00 0.00 61 1009.0
20260505081200 32 212 8.0 11.3 0.00 0.00 0.00 61 1009.0
20260505080657 33 246 8.0 9.7 0.00 0.00 0.00 63 1009.0
20260505080158 33 336 8.0 11.3 0.00 0.00 0.00 62 1009.0
20260505075659 33 274 6.4 9.7 0.00 0.00 0.00 61 1009.0
20260505075158 32 9 8.0 11.3 0.00 0.00 0.00 61 1009.0
20260505074658 33 172 6.4 9.7 0.00 0.00 0.00 61 1009.0
20260505074157 33 13 9.7 11.3 0.00 0.00 0.00 62 1009.0
20260505073657 32 301 6.4 8.0 0.00 0.00 0.00 62 1009.0
20260505073158 33 320 8.0 9.7 0.00 0.00 0.00 62 1009.0
20260505072658 33 198 3.2 3.2 0.00 0.00 0.00 62 1009.0
20260505072158 33 135 6.4 8.0 0.00 0.00 0.00 62 1009.0
20260505071658 33 291 9.7 11.3 0.00 0.00 0.00 61 1009.0
20260505071158 33 291 8.0 9.7 0.00 0.00 0.00 61 1010.0
20260505070658 33 342 8.0 9.7 0.00 0.00 0.00 62 1009.0
20260505070158 33 297 4.8 8.0 0.00 0.00 0.00 63 1009.0
20260505065657 33 280 12.9 14.5 0.00 0.00 0.00 62 1010.0
20260505065157 33 307 6.4 8.0 0.00 0.00 0.00 63 1009.0
20260505064657 33 300 9.7 11.3 0.00 0.00 0.00 62 1010.0
20260505064157 33 297 8.0 9.7 0.00 0.00 0.00 62 1010.0
20260505063657 32 339 9.7 12.9 0.00 0.00 0.00 63 1010.0
20260505063158 33 291 11.3 12.9 0.00 0.00 0.00 63 1010.0
20260505062658 33 327 11.3 12.9 0.00 0.00 0.00 63 1010.0
20260505062158 33 248 8.0 9.7 0.00 0.00 0.00 62 1010.0
20260505061657 33 275 3.2 4.8 0.00 0.00 0.00 63 1010.0
20260505061157 32 215 6.4 9.7 0.00 0.00 0.00 63 1010.0
20260505060658 33 295 6.4 8.0 0.00 0.00 0.00 63 1010.0
20260505060157 32 296 4.8 8.0 0.00 0.00 0.00 63 1010.0
20260505055657 32 239 8.0 8.0 0.00 0.00 0.00 63 1010.0
20260505055157 33 290 8.0 9.7 0.00 0.00 0.00 61 1010.0
20260505054657 33 325 11.3 12.9 0.00 0.00 0.00 64 1010.0
20260505054157 33 310 6.4 8.0 0.00 0.00 0.00 65 1010.0
20260505053657 33 322 6.4 8.0 0.00 0.00 0.00 65 1010.0
20260505053156 33 345 8.0 9.7 0.00 0.00 0.00 63 1010.0
20260505052657 32 286 8.0 9.7 0.00 0.00 0.00 64 1011.0
20260505052157 32 173 4.8 4.8 0.00 0.00 0.00 65 1011.0
20260505051657 32 297 9.7 11.3 0.00 0.00 0.00 63 1011.0
20260505051158 33 311 6.4 8.0 0.00 0.00 0.00 65 1011.0
20260505050657 32 315 8.0 12.9 0.00 0.00 0.00 64 1011.0
20260505050157 32 319 8.0 9.7 0.00 0.00 0.00 64 1011.0
20260505041657 32 198 8.0 9.7 0.00 0.00 0.00 66 1012.0
20260505041157 32 281 9.7 11.3 0.00 0.00 0.00 67 1012.0
20260505040658 32 302 8.0 9.7 0.00 0.00 0.00 68 1012.0
20260505040157 32 245 4.8 8.0 0.00 0.00 0.00 69 1012.0
20260505035658 32 245 4.8 8.0 0.00 0.00 0.00 68 1012.0
20260505035158 32 263 9.7 11.3 0.00 0.00 0.00 68 1012.0
20260505034657 31 270 4.8 8.0 0.00 0.00 0.00 69 1012.0
20260505034158 32 201 11.3 12.9 0.00 0.00 0.00 68 1012.0
20260505033658 31 165 1.6 1.6 0.00 0.00 0.00 69 1012.0
20260505033157 32 227 6.4 9.7 0.00 0.00 0.00 69 1012.0
20260505032657 32 353 8.0 9.7 0.00 0.00 0.00 69 1012.0
20260505032158 31 175 4.8 4.8 0.00 0.00 0.00 70 1013.0
20260505031657 32 287 11.3 12.9 0.00 0.00 0.00 69 1013.0
20260505031157 32 251 6.4 9.7 0.00 0.00 0.00 68 1013.0
20260505030657 31 211 4.8 4.8 0.00 0.00 0.00 71 1013.0
20260505030159 31 241 4.8 4.8 0.00 0.00 0.00 71 1013.0
20260505025659 31 291 6.4 8.0 0.00 0.00 0.00 71 1013.0
20260505025159 31 315 8.0 9.7 0.00 0.00 0.00 72 1013.0
20260505024658 31 208 4.8 4.8 0.00 0.00 0.00 72 1013.0
20260505024200 31 213 4.8 4.8 0.00 0.00 0.00 72 1013.0
20260505023208 31 262 12.9 16.1 0.00 0.00 0.00 72 1013.0
20260505022657 30 262 9.7 11.3 0.00 0.00 0.00 74 1013.0
20260505022159 31 301 8.0 9.7 0.00 0.00 0.00 74 1013.0
20260505021659 31 251 6.4 8.0 0.00 0.00 0.00 74 1013.0
20260505021158 30 277 11.3 11.3 0.00 0.00 0.00 74 1013.0
20260505020659 30 171 3.2 3.2 0.00 0.00 0.00 76 1013.0
20260505020157 30 282 4.8 8.0 0.00 0.00 0.00 76 1013.0
20260505015658 30 191 4.8 4.8 0.00 0.00 0.00 77 1013.0
20260505015157 30 320 6.4 9.7 0.00 0.00 0.00 78 1013.0
20260505014657 30 148 4.8 4.8 0.00 0.00 0.00 79 1013.0
20260505014157 30 283 8.0 9.7 0.00 0.00 0.00 80 1013.0
20260505013657 30 171 3.2 3.2 0.00 0.00 0.00 82 1013.0
20260505013157 30 180 0.0 1.6 0.00 0.00 0.00 83 1013.0
20260505012657 29 167 1.6 1.6 0.00 0.00 0.00 85 1013.0
20260505012157 28 129 1.6 3.2 0.00 0.00 0.00 86 1013.0
20260505011657 29 61 4.8 8.0 0.00 0.00 0.00 85 1013.0
20260505011157 29 164 1.6 1.6 0.00 0.00 0.00 85 1013.0
20260505010657 28 150 1.6 1.6 0.00 0.00 0.00 86 1013.0
20260505010159 28 104 3.2 3.2 0.00 0.00 0.00 87 1013.0
20260505005700 28 76 1.6 3.2 0.00 0.00 0.00 86 1013.0
20260505005159 28 144 3.2 4.8 0.00 0.00 0.00 88 1013.0
20260505004657 28 144 4.8 4.8 0.00 0.00 0.00 89 1013.0
20260505004157 27 154 1.6 1.6 0.00 0.00 0.00 89 1013.0
20260505003657 27 130 1.6 3.2 0.00 0.00 0.00 90 1013.0
20260505003158 27 143 3.2 3.2 0.00 0.00 0.00 90 1013.0
20260505002657 27 152 1.6 3.2 0.00 0.00 0.00 90 1013.0
20260505002157 27 42 4.8 4.8 0.00 0.00 0.00 91 1013.0
20260505001657 27 137 1.6 3.2 0.00 0.00 0.00 91 1013.0
20260505001157 27 106 4.8 4.8 0.00 0.00 0.00 90 1013.0
20260505000657 27 164 0.0 0.0 0.00 0.00 0.00 91 1012.0
20260505000157 27 152 0.0 1.6 0.00 0.00 0.00 92 1012.0
20260504235657 27 143 1.6 1.6 0.00 0.00 0.00 91 1012.0
20260504235157 27 106 4.8 4.8 0.00 0.00 0.00 91 1013.0
20260504234657 27 163 1.6 3.2 0.00 0.00 0.00 92 1012.0
20260504234157 27 127 1.6 1.6 0.00 0.00 0.00 93 1012.0
20260504233657 26 152 0.0 0.0 0.00 0.00 0.00 95 1012.0
20260504233157 26 157 1.6 1.6 0.00 0.00 0.00 95 1013.0
20260504232657 26 141 1.6 1.6 0.00 0.00 0.00 95 1012.0
20260504232157 26 162 1.6 1.6 0.00 0.00 0.00 95 1012.0
20260504231657 26 148 1.6 1.6 0.00 0.00 0.00 96 1012.0
20260504231157 26 155 1.6 1.6 0.00 0.00 0.00 96 1012.0
20260504230658 26 118 0.0 1.6 0.00 0.00 0.00 95 1012.0
20260504230158 26 110 3.2 4.8 0.00 0.00 0.00 95 1012.0
20260504225657 26 161 0.0 1.6 0.00 0.00 0.00 95 1012.0
20260504225158 26 163 0.0 0.0 0.00 0.00 0.00 95 1012.0
20260504224657 26 141 1.6 3.2 0.00 0.00 0.00 95 1012.0
20260504224157 26 156 0.0 0.0 0.00 0.00 0.00 95 1012.0
20260504223657 26 160 0.0 0.0 0.00 0.00 0.00 95 1012.0
20260504223157 26 157 0.0 1.6 0.00 0.00 0.00 95 1012.0
20260504222657 26 148 1.6 1.6 0.00 0.00 0.00 95 1012.0
20260504222201 26 154 0.0 0.0 0.00 0.00 0.00 95 1012.0
20260504221656 26 150 1.6 3.2 0.00 0.00 0.00 95 1012.0
20260504221157 26 147 1.6 3.2 0.00 0.00 0.00 95 1012.0
20260504220657 26 139 1.6 1.6 0.00 0.00 0.00 94 1012.0
20260504220157 26 150 1.6 1.6 0.00 0.00 0.00 94 1012.0
20260504215657 26 155 0.0 1.6 0.00 0.00 0.00 94 1011.0
20260504215157 26 157 1.6 1.6 0.00 0.00 0.00 94 1012.0
20260504214658 26 156 1.6 1.6 0.00 0.00 0.00 94 1011.0
20260504214157 26 140 0.0 0.0 0.00 0.00 0.00 94 1011.0
20260504213657 26 159 0.0 0.0 0.00 0.00 0.00 94 1011.0
20260504213157 26 160 0.0 0.0 0.00 0.00 0.00 94 1011.0
20260504212657 26 144 1.6 1.6 0.00 0.00 0.00 94 1011.0
20260504212157 26 135 3.2 3.2 0.00 0.00 0.00 94 1011.0
20260504211657 26 113 1.6 1.6 0.00 0.00 0.00 94 1011.0
20260504211157 26 151 3.2 3.2 0.00 0.00 0.00 94 1011.0
20260504210657 26 69 3.2 3.2 0.00 0.00 0.00 94 1011.0
20260504210157 26 353 6.4 8.0 0.00 0.00 0.00 94 1011.0
20260504205657 26 166 0.0 0.0 0.00 0.00 0.00 94 1011.0
20260504205157 26 141 4.8 4.8 0.00 0.00 0.00 94 1011.0
20260504204657 26 143 3.2 3.2 0.00 0.00 0.00 94 1011.0
20260504204158 26 169 4.8 8.0 0.00 0.00 0.00 94 1011.0
20260504203657 26 120 6.4 8.0 0.00 0.00 0.00 94 1011.0
20260504203158 26 153 4.8 8.0 0.00 0.00 0.00 94 1011.0
20260504202657 26 133 8.0 8.0 0.00 0.00 0.00 94 1011.0
20260504202157 26 152 3.2 3.2 0.00 0.00 0.00 94 1011.0
20260504201658 26 132 1.6 1.6 0.00 0.00 0.00 94 1011.0
20260504201157 26 158 3.2 3.2 0.00 0.00 0.00 95 1011.0
20260504200658 26 111 3.2 3.2 0.00 0.00 0.00 95 1011.0
20260504200157 26 148 3.2 3.2 0.00 0.00 0.00 95 1011.0
20260504195657 26 150 4.8 4.8 0.00 0.00 0.00 95 1011.0
20260504195157 26 137 1.6 1.6 0.00 0.00 0.00 95 1011.0
20260504194658 26 155 1.6 3.2 0.00 0.00 0.00 95 1011.0
20260504194157 26 160 0.0 1.6 0.00 0.00 0.00 95 1011.0
20260504193657 26 129 8.0 9.7 0.00 0.00 0.00 95 1011.0
20260504193157 26 123 8.0 9.7 0.00 0.00 0.00 95 1011.0